Regional Weather Roundup
Issued by NWS Nashville, TN

Home | Current Version | Previous Version | Text Only | Print | Product List | Glossary On
Versions: 1 2 3 4 5 6 7 8 9 10 11 12 13 14 15 16 17 18 19 20 21 22 23 24 25 26 27 28 29 30 31 32 33 34 35 36 37 38 39 40 41 42 43 44 45 46 47 48 49 50
000
ASUS44 KOHX 170110
RWROHX
MIDDLE TENNESSEE HOURLY WEATHER ROUNDUP
NATIONAL WEATHER SERVICE NASHVILLE TN
800 PM CDT FRI APR 16 2021

NOTE: "FAIR" INDICATES FEW OR NO CLOUDS BELOW 12,000 FEET WITH
NO SIGNIFICANT WEATHER AND/OR OBSTRUCTIONS TO VISIBILITY.

* THESE REPORTS ARE NOT UNDER NWS QUALITY CONTROL AND MAY NOT
  REPORT WEATHER SUCH AS PRECIPITATION AND FOG.


TNZ005>011-023>034-057-059-062>066-078-080-170200
...NORTHERN MIDDLE TENNESSEE...

CITY           SKY/WX    TMP DP  RH WIND       PRES   REMARKS
CLARKSVILLE    CLOUDY    58  36  43 N3        29.88F
CROSSVILLE     MOCLDY    54  32  43 N3        29.89R
DICKSON        PTCLDY    57  36  44 NE3       29.87S
GALLATIN       CLOUDY    59  37  44 N3        29.91S
LEBANON        PTCLDY    59  39  47 N3        29.87R
LIVINGSTON     CLEAR     55  36  47 N5        29.88S
NASHVILLE      CLOUDY    61  34  36 CALM      29.89S
PORTLAND       MOCLDY    57  39  51 CALM      29.88S
ROCKWOOD       CLEAR     55  36  47 CALM      29.88R
SMYRNA         CLOUDY    58  36  43 CALM      29.90R
SPARTA         PTCLDY    52  41  66 CALM      29.88S
SPRINGFIELD    CLOUDY    57  41  54 CALM      29.88S
WEST NASHVILLE CLEAR     59  37  44 N5        29.87R
$$
TNZ056-058-060-061-075>077-079-093>097-170200
...SOUTHERN MIDDLE TENNESSEE...

CITY           SKY/WX    TMP DP  RH WIND       PRES   REMARKS
COLUMBIA       CLEAR     55  39  54 CALM      29.86S
FAYETTEVILLE   CLEAR     57  36  44 N3        29.89S
LAWRENCEBURG   CLEAR     57  41  54 NE5       29.87S
LEWISBURG      CLEAR     55  45  67 CALM      29.88S
MCMINNVILLE    CLEAR     55  37  50 CALM      29.88R
MURFREESBORO   CLEAR     59  37  44 CALM      29.87R
PULASKI        PTCLDY    55  45  67 CALM      29.87R
SHELBYVILLE    CLOUDY    57  37  47 N3        29.88R
TULLAHOMA      PTCLDY    55  36  47 N5        29.87S
WINCHESTER     CLEAR     57  37  47 CALM      29.87S
$$


...KEY TO REMARKS...
VSB - VISIBILITY IN MILES
WCI - WIND CHILL INDEX
HX  - HEAT INDEX




USA.gov is the U.S. government's official web portal to all federal, state and local government web resources and services.